Powrót do katalogu

DELTA 1 DEB

LostSSO
NORAD 37660·DEBRIS·🇺🇸 United States

Wystrzelony Mar 5, 1978 z Vandenberg Space Force Base

Loading…

Następne Przeloty (najbliższe 24 godziny)

TLE

NieaktualneSource: Space-Track

Epoka: Sep 10, 2015, 03:51 UTC

1 37660U 78026JX  15253.16066487 +.00001856 +00000-0 +77107-3 0  9994
2 37660 098.4508 230.0870 0027554 282.8776 079.9260 14.27411106585795

Śledź DELTA 1 DEB w czasie rzeczywistym z AllMySat

Download on the App Store